Weather in Vinnytsia

Ukraine / Vinnytsia Region     49°13′57″N   28°28′07″E
temp.,
°C
wind,
m/s
gust,
m/s
humid.,
%
clouds,
%
prec.,
mm/h
press.,
hPa
HPBL,
m
26 october, tue
tue2600:00+3sse49535 0.0 1032203
03:00+2sse410583 0.0 1031220
06:00+1sse411620 0.0 1030241
09:00+2s412580 0.0 1030323
12:00+9s69400 0.0 1028714
15:00+11s69365 0.0 1026872
18:00+8s410485 0.0 1025398
21:00+5s412645 0.0 1026324
27 october, wed
wed2700:00+4s412759 0.0 1025318
03:00+3s311885 0.0 1025266
06:00+2ssw38925 0.0 1025175
09:00+3wsw3687100 0.0 1026154
12:00+10wnw36465 0.0 1025487
15:00+14wnw464852 0.0 10241189
18:00+10nw3665100 0.0 1025123
21:00+8nw247898 0.0 102680
28 october, thu
thu2800:00+7w238598 0.0 102764
03:00+6w2487100 0.0 102770
06:00+6w3588100 0.0 102695
09:00+7w2783100 0.0 1027197
12:00+13w475563 0.0 1026521
15:00+16wnw564486 0.0 1025974
18:00+12wnw3558100 0.0 102577
21:00+10nw3569100 0.0 102695
29 october, fri
fri2900:00+8nw23795 0.0 102747
03:00+8nnw22875 0.0 102727
06:00+7nnw11905 0.0 102810
09:00+8ene11885 0.0 102817
12:00+14ese236628 0.0 1028462
15:00+17se33565 0.0 1027968
18:00+13se33725 0.0 102758
21:00+10se37885 0.0 1028145
30 october, sat
sat3000:00+9se410935 0.0 1029229
03:00+8se310945 0.0 1029229
06:00+7se410956 0.0 1029228
09:00+8sse411885 0.0 1030283
12:00+13sse58595 0.0 1029655
15:00+16sse684845 0.0 1027956
18:00+12sse495380 0.0 1027260
21:00+10sse4126947 0.0 1028316